SES-21

Last updated on Thu Nov 21 2024 00:02:44 GMT+0000 (Coordinated Universal Time)

1 53961U 22123B 24325.41580328 .00000071 00000+0 00000+0 0 9997 2 53961 0.0246 25.3222 0000940 207.8785 205.4167 1.00269832 1450
UTC large
Height (km)
Speed (km/s)
/
Latitude / Longitude
Inclination (degrees)
Orbital Period (minutes)
Azimuth
Elevation
Range (km)
Doppler Factor

Next 0 passes for location: London (51.5072 / 0.1276)

Sorry there are no passes over London.